| time (UTC) | temp F | wind direction | speed MPH | gust MPH | rain 1hr in | rain 24hr in | rain mn in | humidity % | barometer mb |
| 20260503220023 | 69 | 113 | 0.0 | 2.0 | 0.00 | 0.00 | 0.00 | 38 | 1018.8 |
| 20260503215026 | 69 | 131 | 2.0 | 4.0 | 0.00 | 0.00 | 0.00 | 37 | 1018.9 |
| 20260503214031 | 71 | 90 | 1.0 | 3.0 | 0.00 | 0.00 | 0.00 | 35 | 1018.9 |
| 20260503213027 | 72 | 259 | 2.0 | 3.0 | 0.00 | 0.00 | 0.00 | 36 | 1018.9 |
| 20260503212029 | 74 | 158 | 1.0 | 2.0 | 0.00 | 0.00 | 0.00 | 34 | 1019.1 |
| 20260503211032 | 75 | 73 | 3.0 | 6.0 | 0.00 | 0.00 | 0.00 | 31 | 1019.2 |
| 20260503210018 | 80 | 102 | 3.0 | 6.0 | 0.00 | 0.00 | 0.00 | 28 | 1019.2 |
| 20260503205021 | 83 | 208 | 2.0 | 4.0 | 0.00 | 0.00 | 0.00 | 27 | 1019.2 |
| 20260503203027 | 84 | 105 | 3.0 | 5.0 | 0.00 | 0.00 | 0.00 | 26 | 1019.6 |
| 20260503202024 | 85 | 344 | 2.0 | 5.0 | 0.00 | 0.00 | 0.00 | 26 | 1019.6 |
| 20260503201022 | 85 | 99 | 2.0 | 5.0 | 0.00 | 0.00 | 0.00 | 27 | 1019.9 |
| 20260503200120 | 86 | 122 | 2.0 | 4.0 | 0.00 | 0.00 | 0.00 | 25 | 1020.1 |
| 20260503195017 | 85 | 40 | 2.0 | 3.0 | 0.00 | 0.00 | 0.00 | 24 | 1020.1 |
| 20260503194032 | 84 | 138 | 2.0 | 4.0 | 0.00 | 0.00 | 0.00 | 26 | 1020.1 |
| 20260503193018 | 85 | 66 | 2.0 | 4.0 | 0.00 | 0.00 | 0.00 | 24 | 1020.3 |
| 20260503192016 | 84 | 174 | 3.0 | 5.0 | 0.00 | 0.00 | 0.00 | 24 | 1020.5 |
| 20260503191018 | 85 | 155 | 3.0 | 5.0 | 0.00 | 0.00 | 0.00 | 24 | 1020.5 |
| 20260503190022 | 84 | 291 | 2.0 | 4.0 | 0.00 | 0.00 | 0.00 | 23 | 1020.6 |
| 20260503185018 | 83 | 181 | 2.0 | 4.0 | 0.00 | 0.00 | 0.00 | 23 | 1020.7 |
| 20260503184022 | 82 | 30 | 2.0 | 4.0 | 0.00 | 0.00 | 0.00 | 24 | 1020.9 |
| 20260503183100 | 81 | 58 | 3.0 | 6.0 | 0.00 | 0.00 | 0.00 | 25 | 1020.9 |
| 20260503182016 | 81 | 32 | 2.0 | 3.0 | 0.00 | 0.00 | 0.00 | 25 | 1021.1 |
| 20260503181032 | 80 | 104 | 3.0 | 6.0 | 0.00 | 0.00 | 0.00 | 27 | 1021.3 |
| 20260503180030 | 79 | 208 | 3.0 | 5.0 | 0.00 | 0.00 | 0.00 | 25 | 1021.4 |
| 20260503175032 | 80 | 216 | 3.0 | 4.0 | 0.00 | 0.00 | 0.00 | 27 | 1021.4 |
| 20260503174018 | 79 | 143 | 2.0 | 3.0 | 0.00 | 0.00 | 0.00 | 28 | 1021.6 |
| 20260503173101 | 78 | 265 | 2.0 | 3.0 | 0.00 | 0.00 | 0.00 | 30 | 1021.9 |
| 20260503172024 | 76 | 41 | 2.0 | 3.0 | 0.00 | 0.00 | 0.00 | 30 | 1022.1 |
| 20260503131016 | 45 | 295 | 1.0 | 2.0 | 0.00 | 0.00 | 0.00 | 82 | 1023.2 |
| 20260503081024 | 36 | 0.0 | 0.0 | 0.00 | 0.00 | 0.00 | 90 | 1020.5 | |
| 20260503072017 | 36 | 0.0 | 0.0 | 0.00 | 0.00 | 0.00 | 89 | 1020.1 | |
| 20260503071033 | 36 | 0.0 | 0.0 | 0.00 | 0.00 | 0.00 | 89 | 1020.0 | |
| 20260503055028 | 38 | 173 | 1.0 | 2.0 | 0.00 | 0.00 | 0.00 | 88 | 1020.0 |
| 20260503054026 | 38 | 0.0 | 0.0 | 0.00 | 0.00 | 0.00 | 88 | 1020.1 | |
| 20260503053024 | 38 | 209 | 1.0 | 2.0 | 0.00 | 0.00 | 0.00 | 87 | 1020.0 |
| 20260503051019 | 38 | 203 | 0.0 | 1.0 | 0.00 | 0.00 | 0.00 | 86 | 1019.9 |
| 20260503050016 | 39 | 113 | 0.0 | 1.0 | 0.00 | 0.00 | 0.00 | 84 | 1019.9 |
| 20260503045026 | 39 | 113 | 1.0 | 2.0 | 0.00 | 0.00 | 0.00 | 83 | 1019.9 |
| 20260503044029 | 40 | 0.0 | 0.0 | 0.00 | 0.00 | 0.00 | 84 | 1019.7 | |
| 20260503043027 | 40 | 100 | 1.0 | 2.0 | 0.00 | 0.00 | 0.00 | 83 | 1019.6 |
| 20260503042131 | 40 | 103 | 0.0 | 2.0 | 0.00 | 0.00 | 0.00 | 82 | 1019.6 |
| 20260503041027 | 41 | 158 | 0.0 | 1.0 | 0.00 | 0.00 | 0.00 | 81 | 1019.4 |
| 20260503040024 | 41 | 302 | 0.0 | 2.0 | 0.00 | 0.00 | 0.00 | 80 | 1019.4 |
| 20260503035022 | 41 | 180 | 0.0 | 2.0 | 0.00 | 0.00 | 0.00 | 80 | 1019.4 |
| 20260503034019 | 42 | 203 | 0.0 | 2.0 | 0.00 | 0.00 | 0.00 | 78 | 1019.4 |
| 20260503033117 | 42 | 191 | 0.0 | 1.0 | 0.00 | 0.00 | 0.00 | 76 | 1019.1 |
| 20260503032033 | 42 | 98 | 1.0 | 3.0 | 0.00 | 0.00 | 0.00 | 77 | 1019.1 |
| 20260503031031 | 43 | 0.0 | 0.0 | 0.00 | 0.00 | 0.00 | 74 | 1019.0 | |
| 20260503030033 | 44 | 0.0 | 0.0 | 0.00 | 0.00 | 0.00 | 71 | 1018.9 | |
| 20260503025019 | 45 | 0.0 | 0.0 | 0.00 | 0.00 | 0.00 | 69 | 1018.9 | |
| 20260503024023 | 45 | 82 | 0.0 | 2.0 | 0.00 | 0.00 | 0.00 | 69 | 1018.7 |
| 20260503023026 | 46 | 23 | 0.0 | 1.0 | 0.00 | 0.00 | 0.00 | 66 | 1018.7 |
| 20260503022028 | 47 | 68 | 0.0 | 1.0 | 0.00 | 0.00 | 0.00 | 65 | 1018.4 |
| 20260503021032 | 48 | 104 | 0.0 | 2.0 | 0.00 | 0.00 | 0.00 | 64 | 1018.4 |
| 20260503020017 | 49 | 104 | 1.0 | 2.0 | 0.00 | 0.00 | 0.00 | 61 | 1018.4 |
| 20260503015026 | 50 | 0.0 | 0.0 | 0.00 | 0.00 | 0.00 | 56 | 1018.3 | |
| 20260503014023 | 51 | 0.0 | 0.0 | 0.00 | 0.00 | 0.00 | 55 | 1018.1 | |
| 20260503013020 | 51 | 1 | 2.0 | 3.0 | 0.00 | 0.00 | 0.00 | 52 | 1017.9 |
| 20260503012017 | 52 | 44 | 3.0 | 4.0 | 0.00 | 0.00 | 0.00 | 51 | 1017.8 |
| 20260503011020 | 52 | 12 | 2.0 | 2.0 | 0.00 | 0.00 | 0.00 | 48 | 1017.6 |
| 20260503010018 | 53 | 17 | 2.0 | 3.0 | 0.00 | 0.00 | 0.00 | 48 | 1017.5 |
| 20260503005033 | 53 | 47 | 2.0 | 4.0 | 0.00 | 0.00 | 0.00 | 49 | 1017.4 |
| 20260503004018 | 54 | 281 | 1.0 | 2.0 | 0.00 | 0.00 | 0.00 | 46 | 1017.3 |
| 20260503003021 | 55 | 327 | 2.0 | 3.0 | 0.00 | 0.00 | 0.00 | 45 | 1017.1 |
| 20260503002019 | 55 | 354 | 2.0 | 4.0 | 0.00 | 0.00 | 0.00 | 43 | 1016.8 |
| 20260503001023 | 56 | 9 | 2.0 | 3.0 | 0.00 | 0.00 | 0.00 | 42 | 1016.6 |
| 20260503000020 | 56 | 30 | 2.0 | 3.0 | 0.00 | 0.00 | 0.00 | 42 | 1016.5 |
| 20260502235018 | 57 | 27 | 3.0 | 7.0 | 0.00 | 0.00 | 0.00 | 41 | 1016.3 |
| 20260502234016 | 57 | 116 | 1.0 | 4.0 | 0.00 | 0.00 | 0.00 | 50 | 1016.2 |
| 20260502233031 | 57 | 36 | 1.0 | 2.0 | 0.00 | 0.00 | 0.00 | 48 | 1016.0 |
| 20260502232028 | 57 | 11 | 1.0 | 3.0 | 0.00 | 0.00 | 0.00 | 50 | 1015.9 |
| 20260502231032 | 57 | 0.0 | 0.0 | 0.00 | 0.00 | 0.00 | 49 | 1015.8 | |
| 20260502230018 | 57 | 71 | 1.0 | 2.0 | 0.00 | 0.00 | 0.00 | 46 | 1015.8 |
| 20260502225033 | 57 | 44 | 2.0 | 4.0 | 0.00 | 0.00 | 0.00 | 44 | 1015.8 |
| 20260502224019 | 57 | 18 | 3.0 | 4.0 | 0.00 | 0.00 | 0.00 | 44 | 1015.7 |
| 20260502223016 | 58 | 28 | 3.0 | 5.0 | 0.00 | 0.00 | 0.00 | 44 | 1015.7 |
| 20260502222032 | 58 | 9 | 2.0 | 3.0 | 0.00 | 0.00 | 0.00 | 43 | 1015.5 |
| 20260502221017 | 58 | 19 | 3.0 | 4.0 | 0.00 | 0.00 | 0.00 | 42 | 1015.4 |